TimeCDT,TemperatureF,Dew PointF,Humidity,Sea Level PressureIn,VisibilityMPH,Wind Direction,Wind SpeedMPH,Gust SpeedMPH,PrecipitationIn,Events,Conditions,WindDirDegrees,DateUTC
12:13 AM,30.2,21.2,69,30.54,10.0,Calm,Calm,-,N/A,,Clear,0,2013-05-03 05:13:00
12:53 AM,30.2,24.8,80,30.53,10.0,WNW,4.6,-,N/A,,Clear,290,2013-05-03 05:53:00
1:13 AM,30.2,23.0,75,30.53,10.0,NW,3.5,-,N/A,,Clear,310,2013-05-03 06:13:00
1:34 AM,30.2,24.8,80,30.52,10.0,Calm,Calm,-,N/A,,Clear,0,2013-05-03 06:34:00
1:53 AM,28.4,24.8,86,30.52,10.0,Calm,Calm,-,N/A,,Clear,0,2013-05-03 06:53:00
2:14 AM,28.4,24.8,86,30.52,10.0,North,3.5,-,N/A,,Clear,350,2013-05-03 07:14:00
2:33 AM,26.6,24.8,93,30.51,10.0,NW,3.5,-,N/A,,Clear,310,2013-05-03 07:33:00
2:54 AM,28.4,23.0,80,30.51,10.0,North,4.6,-,N/A,,Clear,350,2013-05-03 07:54:00
3:13 AM,28.4,23.0,80,30.51,10.0,North,3.5,-,N/A,,Clear,350,2013-05-03 08:13:00
3:34 AM,26.6,21.2,80,30.50,10.0,NNE,5.8,-,N/A,,Clear,20,2013-05-03 08:34:00
3:53 AM,26.6,21.2,80,30.50,10.0,NNE,5.8,-,N/A,,Clear,20,2013-05-03 08:53:00
4:13 AM,26.6,23.0,86,30.50,10.0,NNE,4.6,-,N/A,,Clear,30,2013-05-03 09:13:00
4:33 AM,26.6,21.2,80,30.50,10.0,NNE,4.6,-,N/A,,Clear,20,2013-05-03 09:33:00
4:54 AM,26.6,23.0,86,30.50,10.0,North,3.5,-,N/A,,Clear,350,2013-05-03 09:54:00
5:13 AM,26.6,23.0,86,30.50,10.0,NNW,3.5,-,N/A,,Clear,340,2013-05-03 10:13:00
5:33 AM,26.6,23.0,86,30.49,10.0,NW,3.5,-,N/A,,Clear,310,2013-05-03 10:33:00
5:53 AM,26.6,23.0,86,30.49,10.0,NNW,4.6,-,N/A,,Clear,330,2013-05-03 10:53:00
6:13 AM,26.6,23.0,86,30.49,10.0,NNW,4.6,-,N/A,,Clear,330,2013-05-03 11:13:00
6:33 AM,26.6,23.0,86,30.49,10.0,NNW,4.6,-,N/A,,Clear,330,2013-05-03 11:33:00
6:53 AM,26.6,23.0,86,30.50,10.0,NNW,3.5,-,N/A,,Clear,330,2013-05-03 11:53:00
7:14 AM,26.6,23.0,86,30.50,10.0,North,4.6,-,N/A,,Clear,350,2013-05-03 12:14:00
7:33 AM,26.6,23.0,86,30.50,10.0,North,3.5,-,N/A,,Clear,10,2013-05-03 12:33:00
7:54 AM,26.6,23.0,86,30.49,10.0,North,5.8,-,N/A,,Clear,10,2013-05-03 12:54:00
8:13 AM,28.4,24.8,86,30.49,10.0,North,6.9,-,N/A,,Clear,360,2013-05-03 13:13:00
8:33 AM,28.4,24.8,86,30.48,10.0,North,6.9,-,N/A,,Clear,360,2013-05-03 13:33:00
8:53 AM,30.2,24.8,80,30.47,10.0,North,8.1,-,N/A,,Clear,360,2013-05-03 13:53:00
9:13 AM,30.2,24.8,80,30.47,10.0,North,6.9,-,N/A,,Clear,350,2013-05-03 14:13:00
9:53 AM,32.0,24.8,75,30.47,10.0,North,6.9,-,N/A,,Clear,10,2013-05-03 14:53:00
10:13 AM,33.8,24.8,70,30.45,10.0,North,9.2,-,N/A,,Clear,360,2013-05-03 15:13:00
10:34 AM,33.8,24.8,70,30.45,10.0,North,8.1,-,N/A,,Clear,10,2013-05-03 15:34:00
10:53 AM,33.8,24.8,70,30.44,10.0,North,9.2,-,N/A,,Clear,10,2013-05-03 15:53:00
11:14 AM,35.6,24.8,65,30.43,10.0,North,8.1,-,N/A,,Clear,10,2013-05-03 16:14:00
11:33 AM,35.6,21.2,56,30.43,10.0,North,12.7,-,N/A,,Clear,10,2013-05-03 16:33:00
11:54 AM,35.6,19.4,52,30.43,10.0,North,12.7,-,N/A,,Clear,10,2013-05-03 16:54:00
12:33 PM,37.4,19.4,48,30.41,10.0,NNE,9.2,-,N/A,,Clear,20,2013-05-03 17:33:00
12:53 PM,37.4,21.2,52,30.41,10.0,North,8.1,-,N/A,,Clear,10,2013-05-03 17:53:00
1:13 PM,37.4,19.4,48,30.40,10.0,North,10.4,-,N/A,,Clear,10,2013-05-03 18:13:00
1:34 PM,39.2,21.2,49,30.39,10.0,North,9.2,-,N/A,,Clear,10,2013-05-03 18:34:00
1:53 PM,39.2,21.2,49,30.39,10.0,North,9.2,-,N/A,,Clear,10,2013-05-03 18:53:00
2:13 PM,39.2,19.4,45,30.38,10.0,NNE,10.4,-,N/A,,Clear,20,2013-05-03 19:13:00
2:34 PM,39.2,19.4,45,30.37,10.0,North,9.2,-,N/A,,Clear,10,2013-05-03 19:34:00
2:53 PM,41.0,17.6,39,30.36,10.0,NNE,11.5,-,N/A,,Clear,20,2013-05-03 19:53:00
3:13 PM,42.8,15.8,34,30.35,10.0,NNE,12.7,-,N/A,,Clear,20,2013-05-03 20:13:00
3:34 PM,42.8,15.8,34,30.35,10.0,NNE,10.4,-,N/A,,Clear,20,2013-05-03 20:34:00
3:53 PM,42.8,15.8,34,30.34,10.0,NNE,15.0,-,N/A,,Clear,30,2013-05-03 20:53:00
4:13 PM,42.8,15.8,34,30.34,10.0,NNE,13.8,-,N/A,,Clear,20,2013-05-03 21:13:00
4:34 PM,41.0,17.6,39,30.33,10.0,NNE,11.5,-,N/A,,Clear,20,2013-05-03 21:34:00
4:53 PM,42.8,19.4,39,30.33,10.0,NNE,6.9,-,N/A,,Clear,20,2013-05-03 21:53:00
5:13 PM,42.8,19.4,39,30.32,10.0,NNE,10.4,-,N/A,,Clear,20,2013-05-03 22:13:00
5:34 PM,42.8,17.6,36,30.32,10.0,NNE,11.5,-,N/A,,Clear,30,2013-05-03 22:34:00
5:53 PM,44.6,15.8,31,30.31,10.0,NE,9.2,-,N/A,,Clear,40,2013-05-03 22:53:00
6:13 PM,44.6,15.8,31,30.31,10.0,NE,9.2,-,N/A,,Clear,50,2013-05-03 23:13:00
6:34 PM,44.6,15.8,31,30.31,10.0,ENE,8.1,-,N/A,,Clear,60,2013-05-03 23:34:00
6:53 PM,44.6,15.8,31,30.31,10.0,ENE,9.2,-,N/A,,Clear,60,2013-05-03 23:53:00
7:13 PM,42.8,17.6,36,30.31,10.0,NE,8.1,-,N/A,,Clear,50,2013-05-04 00:13:00
7:34 PM,42.8,17.6,36,30.32,10.0,ENE,8.1,-,N/A,,Clear,60,2013-05-04 00:34:00
7:53 PM,42.8,17.6,36,30.31,10.0,ENE,4.6,-,N/A,,Clear,70,2013-05-04 00:53:00
8:13 PM,44.6,17.6,34,30.31,10.0,East,3.5,-,N/A,,Clear,80,2013-05-04 01:13:00
8:34 PM,42.8,21.2,42,30.31,10.0,SE,4.6,-,N/A,,Clear,130,2013-05-04 01:34:00
8:53 PM,39.2,21.2,49,30.31,10.0,Calm,Calm,-,N/A,,Clear,0,2013-05-04 01:53:00
9:13 PM,39.2,21.2,49,30.32,10.0,ESE,3.5,-,N/A,,Clear,110,2013-05-04 02:13:00
9:34 PM,39.2,21.2,49,30.32,10.0,East,4.6,-,N/A,,Clear,90,2013-05-04 02:34:00
9:53 PM,39.2,19.4,45,30.32,10.0,East,3.5,-,N/A,,Clear,90,2013-05-04 02:53:00
10:14 PM,39.2,19.4,45,30.32,10.0,Calm,Calm,-,N/A,,Clear,0,2013-05-04 03:14:00
10:53 PM,35.6,26.6,70,30.32,10.0,Calm,Calm,-,N/A,,Clear,0,2013-05-04 03:53:00
11:14 PM,35.6,26.6,70,30.31,10.0,Calm,Calm,-,N/A,,Clear,0,2013-05-04 04:14:00
11:34 PM,33.8,26.6,75,30.31,10.0,Calm,Calm,-,N/A,,Clear,0,2013-05-04 04:34:00
11:53 PM,33.8,26.6,75,30.31,10.0,Calm,Calm,-,N/A,,Clear,0,2013-05-04 04:53:00